| time (UTC) | temp C | wind direction | speed KPH | gust KPH | rain 1hr cm | rain 24hr cm | rain mn cm | humidity % | barometer mb |
| 20260503214507 | 23 | 231 | 3.2 | 8.0 | 0.00 | 0.00 | 0.00 | 38 | 1008.5 |
| 20260503214005 | 23 | 226 | 1.6 | 8.0 | 0.00 | 0.00 | 0.00 | 36 | 1008.7 |
| 20260503213503 | 24 | 224 | 1.6 | 4.8 | 0.00 | 0.00 | 0.00 | 36 | 1008.8 |
| 20260503213008 | 23 | 267 | 1.6 | 6.4 | 0.00 | 0.00 | 0.00 | 38 | 1008.9 |
| 20260503212504 | 23 | 314 | 3.2 | 6.4 | 0.00 | 0.00 | 0.00 | 37 | 1008.9 |
| 20260503212004 | 23 | 311 | 4.8 | 9.7 | 0.00 | 0.00 | 0.00 | 34 | 1009.0 |
| 20260503211507 | 23 | 324 | 3.2 | 9.7 | 0.00 | 0.00 | 0.00 | 34 | 1009.0 |
| 20260503211003 | 23 | 345 | 3.2 | 9.7 | 0.00 | 0.00 | 0.00 | 34 | 1009.1 |
| 20260503210504 | 24 | 309 | 1.6 | 9.7 | 0.00 | 0.00 | 0.00 | 35 | 1009.2 |
| 20260503210007 | 23 | 347 | 1.6 | 8.0 | 0.00 | 0.00 | 0.00 | 38 | 1009.4 |
| 20260503205503 | 23 | 20 | 3.2 | 11.3 | 0.00 | 0.00 | 0.00 | 34 | 1009.4 |
| 20260503204508 | 24 | 279 | 1.6 | 6.4 | 0.00 | 0.00 | 0.00 | 35 | 1009.5 |
| 20260503204003 | 23 | 287 | 1.6 | 6.4 | 0.00 | 0.00 | 0.00 | 34 | 1009.6 |
| 20260503203503 | 24 | 18 | 3.2 | 9.7 | 0.00 | 0.00 | 0.00 | 35 | 1009.7 |
| 20260503203007 | 24 | 22 | 1.6 | 9.7 | 0.00 | 0.00 | 0.00 | 34 | 1009.7 |
| 20260503202504 | 23 | 25 | 1.6 | 8.0 | 0.00 | 0.00 | 0.00 | 35 | 1009.7 |
| 20260503202004 | 23 | 352 | 3.2 | 14.5 | 0.00 | 0.00 | 0.00 | 37 | 1009.8 |
| 20260503201507 | 23 | 335 | 4.8 | 14.5 | 0.00 | 0.00 | 0.00 | 34 | 1010.0 |
| 20260503201003 | 23 | 345 | 6.4 | 14.5 | 0.00 | 0.00 | 0.00 | 35 | 1010.0 |
| 20260503200504 | 23 | 354 | 6.4 | 16.1 | 0.00 | 0.00 | 0.00 | 35 | 1010.1 |
| 20260503200007 | 23 | 343 | 6.4 | 16.1 | 0.00 | 0.00 | 0.00 | 35 | 1010.1 |
| 20260503195504 | 23 | 323 | 3.2 | 14.5 | 0.00 | 0.00 | 0.00 | 35 | 1010.2 |
| 20260503194507 | 23 | 15 | 3.2 | 8.0 | 0.00 | 0.00 | 0.00 | 38 | 1010.2 |
| 20260503194003 | 23 | 6 | 1.6 | 8.0 | 0.00 | 0.00 | 0.00 | 36 | 1010.2 |
| 20260503193504 | 23 | 312 | 1.6 | 9.7 | 0.00 | 0.00 | 0.00 | 36 | 1010.3 |
| 20260503192504 | 22 | 346 | 4.8 | 14.5 | 0.00 | 0.00 | 0.00 | 35 | 1010.4 |
| 20260503192003 | 22 | 345 | 4.8 | 14.5 | 0.00 | 0.00 | 0.00 | 35 | 1010.4 |
| 20260503191508 | 23 | 336 | 4.8 | 16.1 | 0.00 | 0.00 | 0.00 | 36 | 1010.5 |
| 20260503191003 | 22 | 331 | 6.4 | 17.7 | 0.00 | 0.00 | 0.00 | 36 | 1010.5 |
| 20260503190503 | 23 | 349 | 6.4 | 20.9 | 0.00 | 0.00 | 0.00 | 36 | 1010.6 |
| 20260503190008 | 23 | 7 | 6.4 | 20.9 | 0.00 | 0.00 | 0.00 | 35 | 1010.6 |
| 20260503185503 | 23 | 13 | 4.8 | 12.9 | 0.00 | 0.00 | 0.00 | 35 | 1010.6 |
| 20260503185004 | 22 | 19 | 6.4 | 22.5 | 0.00 | 0.00 | 0.00 | 36 | 1010.5 |
| 20260503184507 | 22 | 12 | 6.4 | 22.5 | 0.00 | 0.00 | 0.00 | 36 | 1010.7 |
| 20260503184004 | 23 | 15 | 4.8 | 16.1 | 0.00 | 0.00 | 0.00 | 37 | 1010.6 |
| 20260503183008 | 22 | 22 | 3.2 | 14.5 | 0.00 | 0.00 | 0.00 | 37 | 1010.7 |
| 20260503182503 | 22 | 24 | 3.2 | 12.9 | 0.00 | 0.00 | 0.00 | 37 | 1010.7 |
| 20260503182003 | 22 | 1 | 3.2 | 11.3 | 0.00 | 0.00 | 0.00 | 38 | 1010.9 |
| 20260503180503 | 22 | 12 | 3.2 | 20.9 | 0.00 | 0.00 | 0.00 | 38 | 1011.2 |
| 20260503180007 | 22 | 10 | 3.2 | 11.3 | 0.00 | 0.00 | 0.00 | 40 | 1011.2 |
| 20260503175503 | 22 | 346 | 3.2 | 12.9 | 0.00 | 0.00 | 0.00 | 39 | 1011.3 |
| 20260503175003 | 22 | 347 | 3.2 | 14.5 | 0.00 | 0.00 | 0.00 | 38 | 1011.3 |
| 20260503174507 | 22 | 11 | 3.2 | 14.5 | 0.00 | 0.00 | 0.00 | 39 | 1011.4 |
| 20260503174004 | 21 | 15 | 4.8 | 12.9 | 0.00 | 0.00 | 0.00 | 38 | 1011.3 |
| 20260503173503 | 21 | 22 | 4.8 | 12.9 | 0.00 | 0.00 | 0.00 | 38 | 1011.4 |
| 20260503173007 | 21 | 25 | 4.8 | 12.9 | 0.00 | 0.00 | 0.00 | 36 | 1011.4 |
| 20260503172504 | 21 | 18 | 4.8 | 17.7 | 0.00 | 0.00 | 0.00 | 38 | 1011.4 |
| 20260503172003 | 21 | 10 | 6.4 | 17.7 | 0.00 | 0.00 | 0.00 | 39 | 1011.5 |
| 20260503171003 | 21 | 352 | 6.4 | 19.3 | 0.00 | 0.00 | 0.00 | 37 | 1011.5 |
| 20260503170504 | 21 | 356 | 6.4 | 19.3 | 0.00 | 0.00 | 0.00 | 38 | 1011.5 |
| 20260503151003 | 16 | 332 | 3.2 | 9.7 | 0.00 | 0.00 | 0.00 | 54 | 1011.5 |
| 20260503150503 | 16 | 338 | 4.8 | 9.7 | 0.00 | 0.00 | 0.00 | 54 | 1011.5 |
| 20260503131004 | 13 | 240 | 1.6 | 4.8 | 0.00 | 0.00 | 0.00 | 58 | 1010.6 |
| 20260503130503 | 13 | 239 | 1.6 | 4.8 | 0.00 | 0.00 | 0.00 | 57 | 1010.5 |
| 20260503110504 | 11 | 217 | 0.0 | 1.6 | 0.00 | 0.00 | 0.00 | 58 | 1010.5 |
| 20260503090503 | 13 | 233 | 3.2 | 9.7 | 0.00 | 0.00 | 0.00 | 49 | 1009.9 |
| 20260503081507 | 13 | 198 | 1.6 | 9.7 | 0.00 | 0.00 | 0.00 | 49 | 1010.3 |
| 20260503080503 | 13 | 203 | 1.6 | 8.0 | 0.00 | 0.00 | 0.00 | 49 | 1010.5 |
| 20260503072503 | 13 | 196 | 3.2 | 8.0 | 0.00 | 0.00 | 0.00 | 48 | 1010.7 |
| 20260503072003 | 13 | 192 | 1.6 | 6.4 | 0.00 | 0.00 | 0.00 | 48 | 1010.7 |
| 20260503071508 | 13 | 190 | 1.6 | 6.4 | 0.00 | 0.00 | 0.00 | 48 | 1010.8 |
| 20260503070504 | 13 | 197 | 3.2 | 6.4 | 0.00 | 0.00 | 0.00 | 47 | 1010.8 |
| 20260503055003 | 14 | 199 | 4.8 | 12.9 | 0.00 | 0.00 | 0.00 | 45 | 1011.8 |
| 20260503054508 | 14 | 195 | 4.8 | 12.9 | 0.00 | 0.00 | 0.00 | 44 | 1011.7 |
| 20260503054003 | 14 | 198 | 3.2 | 16.1 | 0.00 | 0.00 | 0.00 | 44 | 1011.7 |
| 20260503053504 | 14 | 202 | 4.8 | 16.1 | 0.00 | 0.00 | 0.00 | 45 | 1011.8 |
| 20260503053008 | 14 | 201 | 3.2 | 8.0 | 0.00 | 0.00 | 0.00 | 45 | 1011.9 |
| 20260503052504 | 14 | 200 | 4.8 | 9.7 | 0.00 | 0.00 | 0.00 | 45 | 1011.8 |
| 20260503052003 | 14 | 205 | 4.8 | 9.7 | 0.00 | 0.00 | 0.00 | 45 | 1011.8 |
| 20260503050503 | 13 | 199 | 4.8 | 12.9 | 0.00 | 0.00 | 0.00 | 46 | 1011.8 |
| 20260503050010 | 13 | 197 | 3.2 | 12.9 | 0.00 | 0.00 | 0.00 | 46 | 1011.9 |
| 20260503045504 | 13 | 200 | 3.2 | 12.9 | 0.00 | 0.00 | 0.00 | 46 | 1012.0 |
| 20260503045004 | 13 | 197 | 4.8 | 12.9 | 0.00 | 0.00 | 0.00 | 47 | 1012.0 |
| 20260503044003 | 13 | 197 | 4.8 | 9.7 | 0.00 | 0.00 | 0.00 | 46 | 1012.1 |
| 20260503043008 | 13 | 196 | 4.8 | 12.9 | 0.00 | 0.00 | 0.00 | 45 | 1012.2 |
| 20260503042504 | 13 | 199 | 4.8 | 9.7 | 0.00 | 0.00 | 0.00 | 46 | 1012.3 |
| 20260503042004 | 13 | 201 | 3.2 | 9.7 | 0.00 | 0.00 | 0.00 | 45 | 1012.5 |
| 20260503041508 | 14 | 203 | 3.2 | 9.7 | 0.00 | 0.00 | 0.00 | 45 | 1012.5 |
| 20260503041004 | 14 | 200 | 3.2 | 8.0 | 0.00 | 0.00 | 0.00 | 44 | 1012.5 |
| 20260503040503 | 14 | 197 | 3.2 | 8.0 | 0.00 | 0.00 | 0.00 | 44 | 1012.6 |
| 20260503040008 | 14 | 197 | 3.2 | 8.0 | 0.00 | 0.00 | 0.00 | 44 | 1012.7 |
| 20260503035503 | 14 | 200 | 4.8 | 9.7 | 0.00 | 0.00 | 0.00 | 43 | 1012.7 |
| 20260503034508 | 15 | 194 | 4.8 | 9.7 | 0.00 | 0.00 | 0.00 | 42 | 1012.7 |
| 20260503033503 | 15 | 198 | 4.8 | 11.3 | 0.00 | 0.00 | 0.00 | 42 | 1012.8 |
| 20260503032504 | 15 | 201 | 4.8 | 12.9 | 0.00 | 0.00 | 0.00 | 41 | 1012.9 |
| 20260503031508 | 15 | 196 | 4.8 | 11.3 | 0.00 | 0.00 | 0.00 | 42 | 1013.1 |
| 20260503030504 | 15 | 200 | 4.8 | 9.7 | 0.00 | 0.00 | 0.00 | 41 | 1013.2 |
| 20260503025504 | 15 | 195 | 3.2 | 8.0 | 0.00 | 0.00 | 0.00 | 42 | 1013.2 |
| 20260503025004 | 15 | 182 | 1.6 | 8.0 | 0.00 | 0.00 | 0.00 | 43 | 1013.2 |
| 20260503024509 | 15 | 188 | 1.6 | 8.0 | 0.00 | 0.00 | 0.00 | 43 | 1013.3 |
| 20260503024003 | 15 | 201 | 1.6 | 4.8 | 0.00 | 0.00 | 0.00 | 44 | 1013.4 |
| 20260503023503 | 15 | 206 | 1.6 | 4.8 | 0.00 | 0.00 | 0.00 | 44 | 1013.4 |
| 20260503022503 | 15 | 207 | 0.0 | 3.2 | 0.00 | 0.00 | 0.00 | 43 | 1013.5 |
| 20260503021003 | 15 | 213 | 0.0 | 3.2 | 0.00 | 0.00 | 0.00 | 43 | 1013.7 |
| 20260503020504 | 16 | 205 | 0.0 | 3.2 | 0.00 | 0.00 | 0.00 | 41 | 1013.8 |
| 20260503020008 | 16 | 195 | 0.0 | 3.2 | 0.00 | 0.00 | 0.00 | 41 | 1013.8 |
| 20260503015503 | 16 | 0 | 0.0 | 0.0 | 0.00 | 0.00 | 0.00 | 41 | 1013.8 |
| 20260503015003 | 16 | 184 | 0.0 | 1.6 | 0.00 | 0.00 | 0.00 | 40 | 1013.9 |
| 20260503014004 | 17 | 183 | 0.0 | 1.6 | 0.00 | 0.00 | 0.00 | 41 | 1013.8 |
| 20260503013503 | 17 | 183 | 0.0 | 1.6 | 0.00 | 0.00 | 0.00 | 39 | 1013.9 |
| 20260503013008 | 17 | 0 | 0.0 | 0.0 | 0.00 | 0.00 | 0.00 | 37 | 1013.9 |
| 20260503012003 | 17 | 190 | 1.6 | 3.2 | 0.00 | 0.00 | 0.00 | 36 | 1013.9 |
| 20260503011508 | 18 | 199 | 1.6 | 6.4 | 0.00 | 0.00 | 0.00 | 35 | 1013.9 |
| 20260503011004 | 18 | 193 | 1.6 | 6.4 | 0.00 | 0.00 | 0.00 | 34 | 1013.9 |
| 20260503010504 | 18 | 178 | 1.6 | 6.4 | 0.00 | 0.00 | 0.00 | 34 | 1013.9 |
| 20260503010008 | 18 | 182 | 1.6 | 6.4 | 0.00 | 0.00 | 0.00 | 35 | 1013.9 |
| 20260503005503 | 18 | 191 | 1.6 | 8.0 | 0.00 | 0.00 | 0.00 | 34 | 1014.0 |
| 20260503004508 | 19 | 201 | 3.2 | 8.0 | 0.00 | 0.00 | 0.00 | 33 | 1014.0 |
| 20260503004004 | 19 | 204 | 3.2 | 9.7 | 0.00 | 0.00 | 0.00 | 33 | 1014.0 |
| 20260503003503 | 20 | 195 | 3.2 | 9.7 | 0.00 | 0.00 | 0.00 | 31 | 1014.0 |
| 20260503002503 | 20 | 211 | 3.2 | 11.3 | 0.00 | 0.00 | 0.00 | 31 | 1014.1 |
| 20260503002004 | 20 | 216 | 3.2 | 9.7 | 0.00 | 0.00 | 0.00 | 30 | 1014.1 |
| 20260503001508 | 20 | 219 | 1.6 | 9.7 | 0.00 | 0.00 | 0.00 | 30 | 1014.2 |
| 20260503001003 | 21 | 213 | 1.6 | 6.4 | 0.00 | 0.00 | 0.00 | 29 | 1014.3 |
| 20260503000503 | 21 | 197 | 0.0 | 3.2 | 0.00 | 0.00 | 0.00 | 31 | 1014.3 |
| 20260503000009 | 21 | 218 | 0.0 | 3.2 | 0.00 | 0.00 | 0.00 | 30 | 1014.4 |
| 20260502235503 | 21 | 246 | 0.0 | 1.6 | 0.00 | 0.00 | 0.00 | 30 | 1014.5 |
| 20260502235003 | 20 | 246 | 1.6 | 3.2 | 0.00 | 0.00 | 0.00 | 30 | 1014.6 |
| 20260502234509 | 20 | 251 | 1.6 | 4.8 | 0.00 | 0.00 | 0.00 | 32 | 1014.7 |
| 20260502234003 | 20 | 246 | 3.2 | 6.4 | 0.00 | 0.00 | 0.00 | 29 | 1014.7 |
| 20260502233503 | 20 | 218 | 3.2 | 8.0 | 0.00 | 0.00 | 0.00 | 31 | 1014.8 |
| 20260502233008 | 20 | 210 | 3.2 | 8.0 | 0.00 | 0.00 | 0.00 | 31 | 1014.9 |
| 20260502232504 | 20 | 233 | 3.2 | 9.7 | 0.00 | 0.00 | 0.00 | 31 | 1014.9 |
| 20260502231508 | 20 | 244 | 1.6 | 4.8 | 0.00 | 0.00 | 0.00 | 31 | 1015.0 |
| 20260502231004 | 20 | 235 | 1.6 | 4.8 | 0.00 | 0.00 | 0.00 | 32 | 1015.2 |
| 20260502224004 | 20 | 274 | 3.2 | 12.9 | 0.00 | 0.00 | 0.00 | 31 | 1015.3 |
| 20260502223503 | 20 | 220 | 3.2 | 9.7 | 0.00 | 0.00 | 0.00 | 33 | 1015.4 |
| 20260502223008 | 20 | 194 | 3.2 | 8.0 | 0.00 | 0.00 | 0.00 | 32 | 1015.5 |
| 20260502222004 | 20 | 232 | 3.2 | 6.4 | 0.00 | 0.00 | 0.00 | 33 | 1015.7 |
| 20260502221508 | 20 | 239 | 3.2 | 12.9 | 0.00 | 0.00 | 0.00 | 32 | 1015.8 |
| 20260502221003 | 20 | 271 | 1.6 | 12.9 | 0.00 | 0.00 | 0.00 | 31 | 1015.8 |
| 20260502220009 | 20 | 227 | 1.6 | 4.8 | 0.00 | 0.00 | 0.00 | 36 | 1016.0 |
| 20260502215503 | 19 | 235 | 1.6 | 4.8 | 0.00 | 0.00 | 0.00 | 32 | 1016.1 |